Volver al catálogo

TURKMENALEM 52E/MONACOSA

ActivoComunicacionesGEO
NORAD 40617·PAYLOAD· XX

Lanzado Apr 27, 2015 desde Cape Canaveral Space Force Station

Loading…

TLE

ActualizadoSource: Space-Track

Época: Sep 14, 2026, 14:02 UTC

1 40617U 15023A   26257.58541439  .00000096  00000-0  00000-0 0  9995
2 40617   0.0378  95.6271 0003021  79.9617  80.7509  1.00273966 41742

Sigue TURKMENALEM 52E/MONACOSA en tiempo real con AllMySat

Download on the App Store